Weather History for Kirksville, MO

Change the Weather History Date:

Wednesday, September 4, 2013

  Actual Average Record
Temperature  
Mean Temperature 72 °F 69 °F  
Max Temperature 92 °F 80 °F 101 °F (1947)
Min Temperature 52 °F 58 °F 38 °F (1974)
Degree Days  
Heating Degree Days 0 1  
Month to date heating degree days 0 4  
Since 1 July heating degree days 13 11  
Cooling Degree Days 7 5  
Month to date cooling degree days 26 22  
Year to date cooling degree days 836 866  
Growing Degree Days 22 (Base 50)    
Moisture  
Dew Point 54 °F    
Average Humidity 61    
Maximum Humidity 93    
Minimum Humidity 28    
Precipitation  
Precipitation 0.00 in 0.15 in 1.76 in (2008)
Month to date precipitation T 0.60  
Year to date precipitation 29.89 28.01  
Sea Level Pressure  
Sea Level Pressure 30.13 in    
Wind  
Wind Speed 2 mph (ESE)    
Max Wind Speed 9 mph    
Max Gust Speed 15 mph    
Visibility 10 miles    
Events      
T = Trace of Precipitation, MM = Missing Value Source: NWS Daily Summary

Daily Weather History Graph

Daily Weather History Graph

Search for Another Location

Airport:

Trip Planner

Search our weather history database for the weather conditions in past years. The results will help you decide how hot, cold, wet, or windy it might be!

Date:

Astronomy

Sep. 04, 2013 Rise Set
Actual Time 6:40 AM CDT 7:36 PM CDT
Civil Twilight 6:13 AM CDT 8:04 PM CDT
Nautical Twilight 5:40 AM CDT 8:36 PM CDT
Astronomical Twilight 5:06 AM CDT 9:10 PM CDT
Moon 5:53 AM CDT (9/4) 6:56 PM CDT (9/4)
Length of Visible Light 13h 50m
Length of Day
12h 55m
Waning Crescent, 1% of the Moon is Illuminated
Sep 4
Waning Crescent
Sep 5
New
Sep 12
First Quarter
Sep 19
Full
Sep 26
Last Quarter

Hourly Weather History & Observations

Time (CDT) Temp. Heat Index Dew Point Humidity Pressure Visibility Wind Dir Wind Speed Gust Speed Precip Events Conditions
12:55 AM 54.0 °F - 50.0 °F 86% 30.09 in 10.0 mi Calm Calm - N/A   Clear
1:55 AM 55.0 °F - 50.0 °F 83% 30.09 in 10.0 mi Calm Calm - N/A   Clear
2:55 AM 55.9 °F - 51.1 °F 84% 30.10 in 10.0 mi Calm Calm - N/A   Clear
3:55 AM 53.1 °F - 50.0 °F 89% 30.11 in 10.0 mi South 3.5 mph - N/A   Clear
4:55 AM 53.1 °F - 50.0 °F 89% 30.12 in 10.0 mi Calm Calm - N/A   Clear
5:55 AM 53.1 °F - 51.1 °F 93% 30.12 in 10.0 mi Calm Calm - N/A   Clear
6:55 AM 52.0 °F - 48.9 °F 89% 30.14 in 10.0 mi Calm Calm - N/A   Clear
7:55 AM 60.1 °F - 55.0 °F 83% 30.16 in 10.0 mi Calm Calm - N/A   Clear
8:55 AM 71.1 °F - 57.0 °F 61% 30.17 in 10.0 mi West 3.5 mph - N/A   Clear
9:55 AM 78.1 °F - 54.0 °F 43% 30.18 in 10.0 mi Calm Calm - N/A   Clear
10:55 AM 84.0 °F 82.9 °F 55.0 °F 37% 30.17 in 10.0 mi Variable 3.5 mph - N/A   Clear
11:55 AM 86.0 °F 84.0 °F 53.1 °F 32% 30.17 in 10.0 mi Variable 3.5 mph - N/A   Clear
12:55 PM 88.0 °F 85.7 °F 53.1 °F 30% 30.16 in 10.0 mi Calm Calm - N/A   Clear
1:55 PM 89.1 °F 86.9 °F 54.0 °F 30% 30.14 in 10.0 mi Variable 5.8 mph - N/A   Clear
2:55 PM 90.0 °F 87.7 °F 54.0 °F 29% 30.12 in 10.0 mi Calm Calm - N/A   Clear
3:55 PM 91.0 °F 88.7 °F 54.0 °F 28% 30.11 in 10.0 mi North 6.9 mph - N/A   Clear
4:55 PM 89.1 °F 86.9 °F 54.0 °F 30% 30.10 in 10.0 mi Calm Calm - N/A   Clear
5:55 PM 89.1 °F 87.1 °F 55.0 °F 31% 30.10 in 10.0 mi NNE 4.6 mph - N/A   Clear
6:55 PM 84.9 °F 84.2 °F 57.9 °F 40% 30.11 in 10.0 mi ENE 3.5 mph - N/A   Clear
7:55 PM 77.0 °F - 57.9 °F 52% 30.12 in 10.0 mi East 3.5 mph - N/A   Clear
8:55 PM 77.0 °F - 57.0 °F 50% 30.12 in 10.0 mi ESE 6.9 mph - N/A   Clear
9:55 PM 68.0 °F - 57.0 °F 68% 30.14 in 10.0 mi SSE 3.5 mph - N/A   Clear
10:55 PM 68.0 °F - 55.9 °F 65% 30.15 in 10.0 mi SSE 3.5 mph - N/A   Clear
11:55 PM 68.0 °F - 55.9 °F 65% 30.14 in 10.0 mi South 3.5 mph - N/A   Clear